sat.trackr.live / text

‹ back to catalog

STARLINK-33629

NORAD 63388 · 2025-063AB

PAYLOAD ACTIVE UNKNOWN

§ Identity

Operator
Country
US
Launch date
2025-03-26
Launch site
AFWTR
Launch vehicle
Mass (kg)
RCS (m²)

Purposes: comms

External: N2YO · Heavens-Above · Gunter

§ Orbital elements

Epoch: 2026-05-25T01:04:19.781760Z

Period
94.11 min
Inclination
53.1576°
Eccentricity
0.0000995
Mean motion
15.30196765 rev/d
Perigee alt
474.5 km
Apogee alt
475.9 km
Semi-major
6,853.4 km
B*
7.1338e-6
RAAN
55.3879°
Arg perigee
72.7813°
Mean anomaly
287.3297°
Rev number
6,648

§ Raw data

STARLINK-336291 63388U 25063AB  26145.04467340 -.00000148  00000+0  71338-5 0  99902 63388  53.1576  55.3879 0000995  72.7813 287.3297 15.30196765 66480

JSON: /api/v1/satellites/63388 · /tle

For live sub-satellite position, see the globe view (requires WebGL).

§ Visibility from observer

Set your observer location to see the next 7 days of passes ≥ 10°. The values pass through the URL so the page stays shareable.

No JS? Fill the form by hand. The geolocation button needs JavaScript.